Location: Unspecified
(0.0000°N, 0.0000°E)
Time: 00:05:17
(UTC+00:00)

N. Korean satellite - Pass Details

Date: 18 January 2022
Orbit: 447 x 490 km, 97.3° (Epoch: 27 January)

Event Time Altitude Azimuth Distance (km) Brightness Sun altitude
Rises 05:10:57 0° 357° (N) 2,551 10.0 -13.9°
Reaches altitude 10° 05:13:07 10° 348° (NNW) 1,673 9.0 -13.4°
Maximum altitude 05:16:27 36° 281° (W) 794 7.1 -12.6°
Drops below altitude 10° 05:19:47 10° 213° (SSW) 1,673 9.2 -11.8°
Sets 05:21:57 0° 205° (SSW) 2,552 10.2 -11.3°
